sat.trackr.live / text

‹ back to catalog

STARLINK-3305

NORAD 50166 · 2021-125L

PAYLOAD ACTIVE UNKNOWN

§ Identity

Operator
Country
US
Launch date
2021-12-18
Launch site
AFWTR
Launch vehicle
Mass (kg)
RCS (m²)

Purposes: comms

External: N2YO · Heavens-Above · Gunter

§ Orbital elements

Epoch: 2026-09-19T23:34:35.981760Z

Period
94.01 min
Inclination
53.1599°
Eccentricity
0.0001111
Mean motion
15.31706396 rev/d
Perigee alt
470.0 km
Apogee alt
471.5 km
Semi-major
6,848.9 km
B*
1.2262e-5
RAAN
84.1936°
Arg perigee
81.1229°
Mean anomaly
278.9899°
Rev number
26,609

§ Raw data

STARLINK-33051 50166U 21125L   26262.98236090  .00000016  00000+0  12262-4 0  99972 50166  53.1599  84.1936 0001111  81.1229 278.9899 15.31706396266096

JSON: /api/v1/satellites/50166 · /tle

For live sub-satellite position, see the globe view (requires WebGL).

§ Visibility from observer

Set your observer location to see the next 7 days of passes ≥ 10°. The values pass through the URL so the page stays shareable.

No JS? Fill the form by hand. The geolocation button needs JavaScript.